Weather History for Madison, SD

Change the Weather History Date:

Friday, February 8, 2013

  Actual Average Record
Temperature  
Mean Temperature 22 °F -  
Max Temperature 26 °F 23 °F 28 °F (2012)
Min Temperature 17 °F 2 °F -18 °F (2011)
Degree Days  
Heating Degree Days 44    
Moisture  
Dew Point 23 °F    
Average Humidity 100    
Maximum Humidity 100    
Minimum Humidity 100    
Precipitation  
Precipitation 0.00 in - - ()
Sea Level Pressure  
Sea Level Pressure 30.14 in    
Wind  
Wind Speed 12 mph (SSE)    
Max Wind Speed 25 mph    
Max Gust Speed 33 mph    
Visibility 6 miles    
Events Fog , Snow    
Averages and records for this station are not official NWS values.
T = Trace of Precipitation, MM = Missing Value Source: NWS Daily Summary

Daily Weather History Graph

Daily Weather History Graph

Search for Another Location

Airport:

Trip Planner

Search our weather history database for the weather conditions in past years. The results will help you decide how hot, cold, wet, or windy it might be!

Date:

Astronomy

Feb. 08, 2013 Rise Set
Actual Time 7:36 AM CST 5:48 PM CST
Civil Twilight 7:06 AM CST 6:18 PM CST
Nautical Twilight 6:32 AM CST 6:53 PM CST
Astronomical Twilight 5:59 AM CST 7:26 PM CST
Moon 6:08 AM CST (2/8) 4:22 PM CST (2/8)
Length of Visible Light 11h 12m
Length of Day
10h 11m
Waning Crescent, 3% of the Moon is Illuminated
Feb 8
Waning Crescent
Feb 10
New
Feb 17
First Quarter
Feb 25
Full
Mar 4
Last Quarter

Hourly Weather History & Observations

Time (CST) Temp. Windchill Dew Point Humidity Pressure Visibility Wind Dir Wind Speed Gust Speed Precip Events Conditions
12:00 AM 19.4 °F 7.2 °F 19.4 °F 100% 30.23 in 1.8 mi East 11.5 mph - N/A   Mist
12:20 AM 19.4 °F 9.5 °F 19.4 °F 100% 30.22 in 0.8 mi ENE 8.1 mph - N/A   Mist
12:40 AM 17.6 °F 7.3 °F 17.6 °F 100% 30.22 in 0.5 mi East 8.1 mph - N/A Fog Light Freezing Fog
1:00 AM 17.6 °F 10.7 °F 17.6 °F 100% 30.24 in 0.5 mi ESE 4.6 mph - N/A Fog Light Freezing Fog
1:20 AM 17.6 °F 10.7 °F 17.6 °F 100% 30.24 in 0.5 mi ESE 4.6 mph - N/A Fog Light Freezing Fog
1:40 AM 19.4 °F 12.8 °F 19.4 °F 100% 30.24 in 0.5 mi SE 4.6 mph - N/A Fog Light Freezing Fog
2:00 AM 19.4 °F 12.8 °F 19.4 °F 100% 30.25 in 0.8 mi SE 4.6 mph - N/A   Mist
2:20 AM 19.4 °F 11.5 °F 19.4 °F 100% 30.24 in 0.8 mi SE 5.8 mph - N/A   Mist
2:40 AM 19.4 °F 9.5 °F 19.4 °F 100% 30.24 in 0.5 mi SE 8.1 mph - N/A Fog Light Freezing Fog
3:00 AM 19.4 °F 11.5 °F 19.4 °F 100% 30.24 in 0.5 mi SE 5.8 mph - N/A Fog Light Freezing Fog
3:20 AM 19.4 °F 8.6 °F 19.4 °F 100% 30.24 in 0.8 mi SE 9.2 mph - N/A   Mist
3:40 AM 19.4 °F 11.5 °F 19.4 °F 100% 30.24 in 0.8 mi South 5.8 mph - N/A   Mist
4:00 AM 19.4 °F 10.4 °F 19.4 °F 100% 30.24 in 0.8 mi SE 6.9 mph - N/A   Mist
4:20 AM 19.4 °F 8.6 °F 19.4 °F 100% 30.24 in 0.8 mi SSE 9.2 mph - N/A   Mist
4:40 AM 19.4 °F 10.4 °F 19.4 °F 100% 30.23 in 0.8 mi SSE 6.9 mph - N/A   Mist
5:00 AM 19.4 °F 9.5 °F 19.4 °F 100% 30.24 in 1.5 mi South 8.1 mph - N/A   Mist
5:20 AM 19.4 °F 9.5 °F 19.4 °F 100% 30.22 in 1.0 mi SSE 8.1 mph - N/A   Mist
5:40 AM 19.4 °F 10.4 °F 19.4 °F 100% 30.23 in 1.5 mi SSE 6.9 mph - N/A   Mist
6:00 AM 19.4 °F 8.6 °F 19.4 °F 100% 30.22 in 2.0 mi SE 9.2 mph - N/A   Mist
6:20 AM 19.4 °F 7.9 °F 19.4 °F 100% 30.23 in 2.0 mi SSE 10.4 mph - N/A   Mist
6:40 AM 19.4 °F 7.9 °F 19.4 °F 100% 30.23 in 3.0 mi SSE 10.4 mph - N/A   Mist
7:00 AM 19.4 °F 6.6 °F 19.4 °F 100% 30.23 in 2.0 mi SSE 12.7 mph 17.3 mph N/A Snow Light Snow
7:20 AM 19.4 °F 7.9 °F 19.4 °F 100% 30.22 in 2.5 mi SSE 10.4 mph - N/A   Mist
7:40 AM 19.4 °F 7.2 °F 19.4 °F 100% 30.23 in 1.8 mi South 11.5 mph 19.6 mph N/A   Mist
8:00 AM 19.4 °F 7.9 °F 19.4 °F 100% 30.23 in 1.2 mi SSE 10.4 mph 19.6 mph N/A Snow Light Snow
8:20 AM 19.4 °F 6.6 °F 19.4 °F 100% 30.23 in 1.2 mi South 12.7 mph - N/A Snow Light Snow
8:40 AM 19.4 °F 6.0 °F 19.4 °F 100% 30.23 in 2.0 mi SSE 13.8 mph - N/A   Mist
9:00 AM 19.4 °F 4.5 °F 19.4 °F 100% 30.22 in 0.8 mi SSE 17.3 mph 21.9 mph N/A   Mist
9:20 AM 19.4 °F 6.0 °F 19.4 °F 100% 30.22 in 0.8 mi SSE 13.8 mph 21.9 mph N/A   Mist
9:40 AM 19.4 °F 5.5 °F 19.4 °F 100% 30.22 in 2.0 mi South 15.0 mph 20.7 mph N/A   Mist
10:00 AM 19.4 °F 5.5 °F 19.4 °F 100% 30.22 in 3.0 mi South 15.0 mph 20.7 mph N/A   Mist
10:45 AM 21.2 °F 6.8 °F 21.2 °F 100% 30.22 in 3.0 mi South 17.3 mph - N/A   Mist
11:00 AM 21.2 °F 6.4 °F 21.2 °F 100% 30.21 in 5.0 mi South 18.4 mph - N/A   Mist
11:20 AM 21.2 °F 6.4 °F 21.2 °F 100% 30.21 in 1.8 mi South 18.4 mph - N/A   Mist
11:40 AM 21.2 °F 6.4 °F 21.2 °F 100% 30.20 in 9.0 mi South 18.4 mph - N/A   Unknown
12:00 PM 23.0 °F 8.7 °F 23.0 °F 100% 30.19 in 8.0 mi South 18.4 mph 23.0 mph N/A   Unknown
12:20 PM 23.0 °F 9.6 °F 23.0 °F 100% 30.18 in 10.0 mi SSE 16.1 mph - N/A   Unknown
12:40 PM 23.0 °F 9.2 °F 23.0 °F 100% 30.15 in 10.0 mi South 17.3 mph 23.0 mph N/A   Unknown
1:00 PM 23.0 °F 9.2 °F 23.0 °F 100% 30.14 in 10.0 mi South 17.3 mph - N/A   Unknown
1:20 PM 23.0 °F 9.6 °F 23.0 °F 100% 30.13 in 10.0 mi SSE 16.1 mph 23.0 mph N/A   Unknown
1:40 PM 24.8 °F 10.7 °F 24.8 °F 100% 30.12 in 10.0 mi SSE 19.6 mph 26.5 mph N/A   Unknown
2:00 PM 24.8 °F 11.5 °F 24.8 °F 100% 30.11 in 10.0 mi SSE 17.3 mph 26.5 mph N/A   Unknown
2:20 PM 24.8 °F 10.0 °F 24.8 °F 100% 30.09 in 10.0 mi SSE 21.9 mph 27.6 mph N/A   Unknown
2:40 PM 24.8 °F 11.1 °F 24.8 °F 100% 30.08 in 10.0 mi SSE 18.4 mph 26.5 mph N/A   Unknown
3:00 PM 24.8 °F 10.0 °F 24.8 °F 100% 30.07 in 10.0 mi SSE 21.9 mph 25.3 mph N/A   Unknown
3:20 PM 24.8 °F 10.3 °F 24.8 °F 100% 30.06 in 10.0 mi SSE 20.7 mph 28.8 mph N/A   Unknown
3:40 PM 24.8 °F 9.6 °F 24.8 °F 100% 30.04 in 10.0 mi SSE 23.0 mph 29.9 mph N/A   Unknown
4:00 PM 24.8 °F 10.3 °F 24.8 °F 100% 30.04 in 10.0 mi SSE 20.7 mph 31.1 mph N/A   Unknown
4:20 PM 24.8 °F 10.7 °F 24.8 °F 100% 30.04 in 10.0 mi SSE 19.6 mph 27.6 mph N/A   Unknown
4:40 PM 26.6 °F 13.8 °F 26.6 °F 100% 30.04 in 10.0 mi SSE 17.3 mph 24.2 mph N/A   Unknown
5:00 PM 26.6 °F 13.4 °F 26.6 °F 100% 30.04 in 10.0 mi SSE 18.4 mph 27.6 mph N/A   Unknown
5:20 PM 26.6 °F 13.4 °F 26.6 °F 100% 30.03 in 10.0 mi SSE 18.4 mph 23.0 mph N/A   Unknown
5:40 PM 26.6 °F 13.8 °F 26.6 °F 100% 30.04 in 10.0 mi SSE 17.3 mph - N/A   Unknown
6:00 PM 26.6 °F 13.1 °F 26.6 °F 100% 30.02 in 10.0 mi SSE 19.6 mph 26.5 mph N/A   Unknown
6:20 PM 26.6 °F 13.1 °F 26.6 °F 100% 30.02 in 10.0 mi SSE 19.6 mph - N/A   Unknown
6:40 PM 26.6 °F 13.1 °F 26.6 °F 100% 30.01 in 10.0 mi SSE 19.6 mph 25.3 mph N/A   Unknown
7:00 PM 26.6 °F 13.8 °F 26.6 °F 100% 30.01 in 10.0 mi SSE 17.3 mph 25.3 mph N/A   Unknown
7:20 PM 26.6 °F 13.8 °F 26.6 °F 100% 30.01 in 10.0 mi SSE 17.3 mph 25.3 mph N/A   Unknown
7:40 PM 26.6 °F 13.8 °F 26.6 °F 100% 30.01 in 10.0 mi SSE 17.3 mph 26.5 mph N/A   Unknown
8:00 PM 26.6 °F 13.1 °F 26.6 °F 100% 30.01 in 10.0 mi SSE 19.6 mph 23.0 mph N/A   Unknown
8:20 PM 26.6 °F 14.7 °F 26.6 °F 100% 30.01 in 10.0 mi SSE 15.0 mph 23.0 mph N/A   Unknown
8:40 PM 26.6 °F 13.8 °F 26.6 °F 100% 30.01 in 10.0 mi SSE 17.3 mph 21.9 mph N/A   Unknown
9:00 PM 26.6 °F 12.7 °F 26.6 °F 100% 30.01 in 10.0 mi South 20.7 mph 26.5 mph N/A   Unknown
9:20 PM 26.6 °F 13.4 °F 26.6 °F 100% 30.01 in 10.0 mi South 18.4 mph - N/A   Unknown
9:40 PM 26.6 °F 12.7 °F 26.6 °F 100% 30.01 in 10.0 mi South 20.7 mph 26.5 mph N/A   Unknown
10:00 PM 26.6 °F 11.7 °F 26.6 °F 100% 30.00 in 10.0 mi South 24.2 mph 28.8 mph N/A   Unknown
10:20 PM 26.6 °F 11.4 °F 26.6 °F 100% 29.99 in 10.0 mi South 25.3 mph 32.2 mph N/A   Unknown
10:40 PM 26.6 °F 12.4 °F 26.6 °F 100% 29.99 in 10.0 mi South 21.9 mph 29.9 mph N/A   Unknown
11:00 PM 26.6 °F 13.1 °F 26.6 °F 100% 29.99 in 10.0 mi South 19.6 mph 33.4 mph N/A   Unknown
11:20 PM 26.6 °F 12.0 °F 26.6 °F 100% 29.98 in 10.0 mi South 23.0 mph 33.4 mph N/A   Unknown
11:40 PM 26.6 °F 12.4 °F 26.6 °F 100% 29.98 in 10.0 mi South 21.9 mph 26.5 mph N/A   Unknown